Regional Weather Roundup
Issued by NWS

Current Version | Previous Version | Text Only | Print | Product List | Glossary On
Versions: 1 2 3 4 5 6 7 8 9 10 11 12 13 14 15 16 17 18 19 20 21 22 23 24 25 26 27 28 29 30 31 32 33 34 35 36 37 38 39 40 41 42 43 44 45 46 47 48 49 50
000
ASUS46 KLOX 280213
RWRCA

SOUTHERN CALIFORNIA WEATHER ROUNDUP
NATIONAL WEATHER SERVICE OXNARD CALIFORNIA
700 PM PDT MON JUL 27 2015

NOTE: "FAIR" INDICATES FEW OR NO CLOUDS BELOW 12,000 FEET WITH NO
SIGNIFICANT WEATHER AND/OR OBSTRUCTIONS TO VISIBILITY.

  -  STATIONS PRECEEDED BY AN ASTERISK (*) ARE NOT NWS OR FAA
     STATIONS AND ARE NOT SUBJECT TO NWS AND FAA QUALITY CONTROL.

CAZ041-042-087-280300-
LA AND ORANGE COUNTY COASTAL AREAS


CITY           SKY/WX    TMP DP  RH WIND       PRES   REMARKS
L.A. DOWNTOWN  SUNNY     76  62  62 VRB3      29.86R
L.A. AIRPORT   MOSUNNY   71  64  78 W13       29.87S
LONG BEACH     SUNNY     77  59  53 S3        29.86S

CITY           SKY/WX    TMP DP  RH WIND       PRES   REMARKS
AVALON           N/A     73 N/A N/A MISG        N/A
FULLERTON      SUNNY     76  60  57 SW7       29.85S
HAWTHORNE      SUNNY     73  64  73 W8        29.87R
*LOS ALAMITOS  FAIR      74  63  69 S9        29.86S
*REDONDO BEACH   N/A     73  64  72 SW2       29.88R
SANTA ANA      SUNNY     71  61  70 S10       29.86S
STA MONICA APT SUNNY     72  63  73 SW6       29.87S
TORRANCE       MOSUNNY   73  64  73 W12       29.88R
*UCLA            N/A     72  59  64 SW5       29.85R

$$

CAZ547-548-048-280300-
LA COUNTY VALLEYS AND INLAND EMPIRE


CITY           SKY/WX    TMP DP  RH WIND       PRES   REMARKS
BURBANK        SUNNY     77  58  51 S10       29.86S
VAN NUYS       SUNNY     79  56  45 SE9       29.85S

CITY           SKY/WX    TMP DP  RH WIND       PRES   REMARKS
CORONA AIRPORT CLEAR     79  59  50 W10       29.86R
*CHATSWORTH      N/A     79  62  54 NW3       29.85R
CHINO          PTCLDY    80  58  46 W14       29.87R
MARCH AFB      CLEAR     81  54  39 NW12      29.88R
*NORTHRIDGE      N/A     79  52  38 E3G9        N/A
ONTARIO        CLEAR     80  55  42 W12       29.86S
*PASADENA        N/A     79  63  57 CALM        N/A
RIVERSIDE      CLEAR     81  58  45 W9        29.86R
SAN BERNARDINO NOT AVBL
*SAN GABRIEL     N/A     77  62  58 S7        29.92R
*WHITEMAN AP   NOT AVBL
*WOODLAND HILL   N/A     81  59  47 S3          N/A

$$

CAZ054-055-280300-
LA AND SAN BERNARDINO COUNTY MOUNTAINS


CITY           SKY/WX    TMP DP  RH WIND       PRES   REMARKS
*BIG BEAR AIRP CLEAR     68  43  40 W6        30.17R
SANDBERG       SUNNY     75  36  24 N20G28    30.05S

$$

CAZ028-029-059-060-099-280300-
ANTELOPE VALLEY AND SURROUNDING AREAS


CITY           SKY/WX    TMP DP  RH WIND       PRES   REMARKS
LANCASTER      SUNNY     86  32  14 W23G30    29.88R
PALMDALE       SUNNY     84  53  34 SW13      29.89R

CITY           SKY/WX    TMP DP  RH WIND       PRES   REMARKS
29 PALMS       PTCLDY    97  32  10 CALM      29.85S HX  91
BARSTOW/DAGGET CLEAR     98  22   6 W7        29.79R HX  91
BISHOP         SUNNY     91   5   4 CALM      29.92S
CHINA LAKE     SUNNY     96  32  10 SW14      29.80R HX  90
EDWARDS AFB    MOSUNNY   91  32  12 W15       29.83R
MOJAVE         SUNNY     86  37  17 W18G24    29.89R
NEEDLES        CLEAR    104  22   5 S10       29.70R HX  96
VICTORVILLE    CLEAR     90  37  15 W13       29.89R

$$

CAZ039-040-280300-
VENTURA AND SANTA BARBARA COUNTY COAST


CITY           SKY/WX    TMP DP  RH WIND       PRES   REMARKS
CAMARILLO      SUNNY     70  59  68 W8        29.87S
OXNARD AIRPORT SUNNY     69  60  73 W10       29.87S
*POINT MUGU    MOSUNNY   71  60  68 W9        29.88S
SBA APT/GOLETA MOSUNNY   70  60  70 SE7       29.85S
*SANTA BARBARA   N/A     73  59  61 CALM      29.94S
*VENTURA         N/A     70  59  67 SW3       29.47S

$$

CAZ044-045-280300-
VENTURA COUNTY VALLEYS


CITY           SKY/WX    TMP DP  RH WIND       PRES   REMARKS
*SIMI VALLEY     N/A     73  62  68 W3        29.83R
*OJAI            N/A     73  62  67 W3        29.81R
*FILLMORE        N/A     74  63  66 SW2       29.78R

$$

CAZ053-280300-
VENTURA COUNTY MOUNTAINS


CITY           SKY/WX    TMP DP  RH WIND       PRES   REMARKS

$$

CAZ034-035-036-280300-
CENTRAL COAST AND SANTA YNEZ VALLEY


CITY           SKY/WX    TMP DP  RH WIND       PRES   REMARKS
SAN LUIS OBISP SUNNY     67  56  67 NW15      29.87S
SANTA MARIA    SUNNY     66  57  72 NW8       29.90S

CITY           SKY/WX    TMP DP  RH WIND       PRES   REMARKS
*CAL POLY SLO    N/A     70  59  68 W5          N/A
*LOMPOC        PTSUNNY   64  54  68 W12       29.91S
*PISMO BEACH     N/A     67  60  78 SW3       29.89R
*SANTA YNEZ    FAIR      70  54  56 W12       29.88R

$$

CAZ037-038-051-280300-
SAN LUIS OBISPO COUNTY INTERIOR AND CUYAMA VALLEY


CITY           SKY/WX    TMP DP  RH WIND       PRES   REMARKS
*CUYAMA          N/A     85  38  18 NE7       29.80R
PASO ROBLES    SUNNY     89  47  23 NW13      29.84R

$$

CAZ032-033-061-280300-
SOUTHERN DESERTS


CITY           SKY/WX    TMP DP  RH WIND       PRES   REMARKS
BLYTHE         CLEAR    104  22   5 S13       29.67S HX  96
IMPERIAL       CLEAR    104  32   8 E6        29.64S HX  97
PALM SPRINGS   CLEAR     99  51  19 NW21G31   29.71R HX  96
THERMAL        CLEAR    101  43  13 S3        29.64S HX  96

$$

ELSEWHERE ACROSS THE WESTERN UNITED STATES AND MEXICO


CITY           SKY/WX    TMP DP  RH WIND       PRES   REMARKS
DENVER, CO     PTCLDY    89  45  21 S7        29.85R
GRAND CANYON,  CLEAR     79  13   8 SW12      30.16R
HONOLULU, HI   MOSUNNY   90  68  48 NE14G22   29.91F HX  93
KAHULUI, MAUI  PTSUNNY   84  70  61 NE12G20   29.91
LAKE TAHOE, CA SUNNY     72  31  22 N7        30.17R
LAS VEGAS, NV  CLEAR    100  21   6 S6        29.73R HX  93
MAMMOTH LAKES, FAIR      75  32  20 NW10G18   30.18R
MEXICO CITY, M MOCLDY    70  52  52 N12       30.25
PHOENIX, AZ    PTCLDY   104  51  17 W12       29.72R HX 101
PORTLAND, OR   MOSUNNY   75  51  43 N10       30.19R
RENO, NV       MOSUNNY   81  29  15 N15       30.07R
SALT LAKE CITY PTCLDY    74  37  26 N14       30.06R
SAN DIEGO, CA  PTCLDY    72  59  63 NW6       29.89S
SAN FRANCISCO, SUNNY     68  53  58 W23       29.89S
SAN JOSE, CA   SUNNY     78  53  41 NW14      29.88R
SEATTLE, WA    PTSUNNY   71  48  43 NW6       30.22R
TIJUANA, MEX   CLEAR     70  57  64 W9        29.91R

$$

STATION/POSITION TIME  TEMP    WIND        PRES    VSBY  WAVE
                       AIR SEA DIR/SP/G                  HT/PER
                 (UTC) (F)     (DEG/KT/KT) (MB)    (MI)  (FT/S)
POINT ARGUELLO B NOT AVBL
WEST SANTA BARBA 0150   61 62  310/ 21/ 25 1010.8S         7/ 9
POINT CONCEPTION NOT AVBL
EAST SANTA BARBA 0100   65 66  250/ 10/ 12 1011.4F
SANTA MONICA BAY 0150   67 72  280/  8/ 10 1011.4S         3/17



USA.gov is the U.S. government's official web portal to all federal, state and local government web resources and services.